Location: Boundary
(64.0833°N, 141.0167°W)
Time: 10:04:44
(UTC+00:00)

ISS - Visible Passes

Search period start: 27 October 2020 00:00
Search period end: 06 November 2020 00:00
Orbit: 417 x 420 km, 51.6° (Epoch: 27 October)

Date Brightness Start Highest point End Pass type
(mag) Time Alt. Az. Time Alt. Az. Time Alt. Az.
29 Oct -0.9 15:50:32 10° SSW 15:51:14 10° S 15:51:54 10° S visible
30 Oct -1.0 15:03:06 10° S 15:03:44 10° S 15:04:22 10° SSE visible
01 Nov -1.0 15:04:02 10° SSW 15:04:25 10° S 15:04:46 10° S visible
02 Nov -1.1 14:16:53 10° S 14:16:54 10° S 14:17:35 10° S visible
